Location: Ellerslie
(46.6017°N, 63.9444°W)
Time: 23:52:40
(UTC+00:00)

Daily predictions for brighter satellites

Satellite Brightness Start Highest point End
(mag) Time Altitude Azimuth Time Altitude Azimuth Time Altitude Azimuth
CZ-4C R/B 3.2 20:51:00 10° NW 20:58:05 86° SW 21:06:50 10° SE
Cosmos 2263 Rocket 2.7 20:53:20 10° NNW 20:58:36 37° NE 21:03:50 10° ESE
Lacrosse 5 rocket 3.0 20:57:35 10° NW 21:00:03 17° N 21:02:28 10° NE
Okean 1-7 Rocket 3.6 21:00:43 10° N 21:05:03 55° ENE 21:09:19 10° SSE
Cosmos 1484 Rocket 2.4 21:04:06 10° SSE 21:07:36 84° ENE 21:11:06 10° NNW
NOSS 7 (H) 4.2 21:04:41 10° NW 21:07:38 83° SW 21:10:54 10° SE
SMAP 3.2 21:08:34 10° SE 21:13:03 50° ENE 21:17:33 10° N
MOS 1 Rocket 4.1 21:10:01 10° SE 21:14:31 34° ENE 21:19:12 10° N
CENTAUR R/B 4.0 21:09:16 10° WNW 21:14:33 27° NNW 21:20:52 10° NE
Landsat 7 4.1 21:12:25 10° SE 21:16:48 43° ENE 21:21:13 10° N
Cosmos 1953 Rocket 4.3 21:12:52 10° N 21:16:54 33° ENE 21:20:56 10° SE
NOSS 2-3 (C) 3.3 21:14:10 10° SSW 21:17:31 48° SE 21:20:53 11° NE
Cosmos 1503 Rocket 4.3 21:13:05 10° SSW 21:18:18 71° WNW 21:23:30 10° NNE
Cosmos 1805 4.5 21:18:35 10° NNE 21:20:41 15° ENE 21:22:47 10° ESE
Cosmos 2227 Rocket 2.2 21:15:23 10° NNW 21:21:05 85° ENE 21:26:44 10° SSE
Meteor 1-25 Rocket 4.3 21:15:52 10° N 21:21:42 77° ENE 21:27:26 10° SSE
Cosmos 1825 Rocket 3.5 21:19:41 10° N 21:24:01 64° E 21:28:16 10° SSE
Cosmos 1076 Rocket 3.9 21:20:16 10° N 21:24:22 41° ENE 21:28:28 10° SSE
Thor Agena Rocket 3.5 21:23:07 10° SSE 21:28:18 84° ENE 21:33:28 10° NNW
Cosmos 2098 Rocket 4.3 21:24:06 10° SSW 21:28:24 49° WNW 21:33:26 10° N
Cosmos 1697 Rocket 2.8 21:24:26 10° SSW 21:30:02 79° WNW 21:35:42 10° NNE
Cosmos 1354 Rocket 4.1 21:24:52 10° SSW 21:30:07 80° WNW 21:35:24 10° NNE
NOSS 2-3 (D) 3.1 21:28:13 10° SW 21:31:54 85° SE 21:35:17 13° NE
NOSS 3 (A) 4.2 21:29:53 10° NNW 21:32:18 64° NE 21:35:28 10° SE
Cosmos 372 Rocket 4.4 21:27:48 10° S 21:32:35 41° ESE 21:37:23 10° NE
NOSS 2-3 (E) 3.1 21:29:41 10° SW 21:33:21 86° NW 21:36:43 13° NE
Cosmos 1898 Rocket 4.1 21:31:16 10° SSE 21:35:55 36° ESE 21:40:13 12° NE
SL-16 R/B 3.0 21:31:24 10° N 21:37:33 65° WNW 21:43:39 10° SSW
IRS-P3 4.2 21:38:02 10° SE 21:43:11 53° ENE 21:48:21 10° N
USA 238 DEB 3.5 21:42:03 10° SSW 21:48:05 75° SE 21:53:49 14° NE
USA 238 3.5 21:42:09 10° SSW 21:48:12 74° SE 21:53:56 14° NE
Cosmos 1937 Rocket 4.1 21:44:53 10° SSE 21:49:32 35° ESE 21:52:44 18° NE
Cosmos 990 Rocket 4.4 21:46:28 10° SW 21:51:32 62° WNW 21:56:40 10° NNE
Cosmos 923 Rocket 4.4 21:46:58 10° N 21:51:48 37° ENE 21:56:35 10° SE
Okean 1 3.7 21:50:28 10° SSE 21:53:42 32° E 21:54:58 25° NE
Cosmos 2058 Rocket 3.3 21:49:52 10° SSE 21:54:10 49° E 21:58:29 10° NNE
USA 215 4.1 21:49:37 16° NE 21:54:14 36° N 22:00:07 10° WNW
Cosmos 1606 Rocket 4.3 21:53:18 10° SSW 21:57:38 56° WNW 22:02:01 10° N
BREEZE M DEB (TANK) 1.6 21:58:53 10° W 22:01:08 63° NNW 22:01:26 53° NNE
GEOS 3 Rocket 3.7 21:56:57 16° NE 22:01:18 83° SE 22:06:40 10° SW
Cosmos-2242 3.0 21:58:22 10° S 22:02:29 54° E 22:05:56 14° NNE
CZ-2D R/B 3.2 22:02:37 10° S 22:05:42 62° WSW 22:08:50 10° NNW
Cosmos 44 Rocket 4.3 22:02:49 10° NNW 22:07:21 30° NE 22:08:34 27° ENE
Gbstr 26 Del rocket 3.2 22:05:40 10° W 22:09:36 47° NNW 22:10:58 31° NE
Cosmos 1655 Rocket 4.1 22:04:01 10° N 22:10:15 78° W 22:16:27 10° S
Cosmos 2082 3.6 22:04:42 10° NNW 22:10:26 68° ENE 22:16:07 10° SE
Aureole 1 Rocket 3.5 22:08:13 10° SSW 22:12:52 81° WNW 22:18:38 11° NNE
Resurs 1-3 3.8 22:09:13 10° SE 22:13:16 42° ENE 22:17:21 10° N
ARIANE 5 R/B 3.2 22:11:43 10° S 22:16:43 58° WSW 22:21:48 10° NNW
IRAS Rocket 4.4 22:11:51 10° SE 22:17:01 45° ENE 22:22:13 10° N
EXPRESS MD2 2.6 22:15:35 10° WSW 22:18:09 80° SSE 22:18:41 59° E
CZ-2D R/B 3.4 22:16:25 10° SSE 22:20:31 60° ENE 22:24:35 10° N
SL-16 R/B 3.0 22:16:44 10° SSE 22:21:30 29° ESE 22:21:40 29° E
Cosmos 1680 Rocket 3.6 22:17:59 10° NNW 22:23:04 50° ENE 22:27:08 16° SE
Cosmos 2237 4.4 22:18:00 10° S 22:23:31 51° ESE 22:25:53 32° NE
Meteor 2-6 Rocket 4.5 22:19:28 10° SSE 22:24:52 46° E 22:27:55 25° NE
Radarsat Rocket 4.5 22:17:44 10° SE 22:25:36 63° ENE 22:32:34 10° N
NOAA 6 4.2 22:23:44 10° SE 22:28:35 47° ENE 22:33:28 10° N
YAOGAN 1 2.4 22:24:42 10° SSE 22:28:54 63° ENE 22:33:07 10° N
Cosmos 1844 Rocket 3.0 22:28:35 10° NNW 22:33:59 43° NE 22:34:41 41° ENE
Cosmos 1980 Rocket 2.8 22:29:31 10° SW 22:35:03 56° WNW 22:39:20 17° NNE
NOAA 15 4.5 22:31:04 10° SSE 22:36:21 82° ENE 22:41:39 10° NNW
Lacrosse 5 rocket 3.0 22:35:15 10° NW 22:36:57 18° N 22:36:57 18° N
Cosmos 2219 3.7 22:32:45 10° NNW 22:38:26 63° WSW 22:44:05 10° SSE
PSLV R/B 3.3 22:37:41 10° SSE 22:42:00 68° NE 22:45:45 10° N
Cosmos 2263 Rocket 3.6 22:37:15 10° NW 22:42:32 40° WSW 22:47:46 10° S
BREEZE-M DEB (TANK) 4.3 22:18:36 10° WNW 22:44:21 87° NNE 22:47:19 37° ESE
SPOT 1/Viking Rocket 3.9 22:39:45 10° S 22:44:55 66° WSW 22:50:07 10° NNW
Meteor 2-2 Rocket 4.4 22:40:15 10° SSW 22:45:52 72° WNW 22:51:31 10° N
SKYMED 2 3.8 22:45:05 25° N 22:47:30 67° WNW 22:51:48 10° SSW
Cosmos 2278 4.2 22:42:27 10° S 22:47:00 39° SE 22:47:00 39° SE
Meteor 1-26 Rocket 4.4 22:42:49 10° SSW 22:48:10 66° WNW 22:53:27 11° N
USA 308 4.0 22:46:01 10° SSW 22:47:47 27° S 22:47:47 27° S
COSMOS 2455 2.7 22:45:00 10° SSW 22:50:57 69° ESE 22:52:28 50° ENE
COSMO-SKYMED 1 2.3 22:53:03 86° WNW 22:53:04 86° W 22:57:11 10° SSW
Cosmos 1553 Rocket 4.0 22:47:37 10° SSW 22:53:48 80° W 23:00:09 10° N
S3M 4.0 22:48:56 10° SSE 22:55:04 53° E 22:55:37 52° ENE
Cosmos 2369 4.0 22:49:49 10° SW 22:55:30 67° WNW 22:58:20 30° NNE
USA 59 Rocket 2.3 22:56:00 10° S 22:56:13 11° S 22:56:13 11° S
SL-19 R/B 4.3 22:58:59 10° S 23:04:25 75° WSW 23:10:11 10° NNW
Cosmos 1709 Rocket 4.3 23:00:04 10° N 23:04:34 46° NNE 23:04:34 46° NNE
Cosmos 2360 Rocket 4.0 23:02:25 10° SSE 23:03:50 17° SSE 23:03:50 17° SSE
CENTAUR R/B 4.3 23:02:20 10° NW 23:07:51 22° N 23:09:08 22° NNE
Cosmos 1745 Rocket 3.8 23:04:57 10° N 23:11:10 85° E 23:17:17 10° S
Cosmos 2221 4.4 23:08:42 10° S 23:09:58 19° S 23:09:58 19° S
Cosmos 2112 Rocket 4.3 23:20:10 10° NNW 23:25:19 62° WSW 23:25:57 57° SW
Cosmos 2333 Rocket 3.0 23:21:12 10° SSW 23:24:52 40° S 23:24:52 40° S
BREEZE-M DEB (TANK) 4.2 23:21:21 10° SW 23:26:18 45° SSW 23:26:18 45° SSW
Cosmos 2322 Rocket 3.7 23:28:24 10° S 23:30:37 24° S 23:30:37 24° S
USA 215 3.9 23:36:58 41° N 23:36:58 41° N 23:42:28 10° NW
